Regional Weather Roundup
Issued by NWS

Home | Current Version | Previous Version | Text Only | Print | Product List | Glossary Off
Versions: 1 2 3 4 5 6 7 8 9 10 11 12 13 14 15 16 17 18 19 20 21 22 23 24 25 26 27 28 29 30 31 32 33 34 35 36 37 38 39 40 41 42 43 44 45 46 47 48 49 50

000
ASUS43 KDTX 280310
RWRMI
MICHIGAN HOURLY REGIONAL WEATHER ROUNDUP
NATIONAL WEATHER SERVICE DETROIT/PONTIAC MI
1100 PM EDT FRI MAR 27 2015

NOTE: "FAIR" INDICATES FEW OR NO CLOUDS BELOW 12,000 FEET WITH NO
SIGNIFICANT WEATHER AND/OR OBSTRUCTION TO VISIBILITY.

MIZ047>049-052>055-059>063-066>070-074>076-081>083-280400-
SOUTHEAST LOWER MICHIGAN

CITY           SKY/WX    TMP DP  RH WIND       PRES   REMARKS
ADRIAN         CLEAR     20  11  68 N3        30.13R
ALMA           CLEAR     19   5  53 N9        30.18R WCI   8
ANN ARBOR      PTCLDY    19   8  62 NE6       30.13R WCI  11
BAD AXE        CLOUDY    19  11  70 N10       30.15R WCI   7
CARO           CLEAR     17   9  69 N6        30.16R WCI   9
DETROIT CITY   CLEAR     19   5  54 N10       30.16R WCI   7
DETROIT        PTCLDY    20   9  62 N9        30.15R WCI   9
FLINT          FAIR      17   7  64 NE8       30.17R WCI   7
GROSSE ILE     CLEAR     21   9  58 N10       30.13R WCI  10
HILLSDALE      CLEAR     21   4  49 CALM      30.09R
HOWELL         CLEAR     18   8  64 NE5       30.13R WCI  11

CITY           SKY/WX    TMP DP  RH WIND       PRES   REMARKS
JACKSON        CLEAR     20   5  52 NE7       30.12R WCI  11
LAMBERTVILLE   FAIR      21  12  68 CALM      30.13R
LANSING        CLOUDY    21   8  57 NE9       30.15R WCI  11
LAPEER         FAIR      14   8  76 CALM      30.15S
MASON          MOCLDY    20   9  61 NE6       30.13R WCI  13
MONROE         CLEAR     21  10  63 CALM      30.12R
MT. CLEMENS    CLEAR     16   8  69 N8        30.13R WCI   5
PONTIAC        CLEAR     15   6  67 NE8       30.13R WCI   4
PORT HOPE        N/A     22  10  60 N15G23    30.13S WCI   9
PORT HURON     CLOUDY    18   9  68 NW6       30.14S WCI   9
TRI CITIES     FAIR      19  10  68 E6        30.18R WCI  11
TROY           CLEAR     18   7  62 N10       30.17R WCI   7
SAGINAW HB     CLEAR     19  10  68 CALM      30.18R
$$
MIZ043>046-050>051-056>058-064>065-071>073-077>080-280400-
SOUTHWEST LOWER MICHIGAN

CITY           SKY/WX    TMP DP  RH WIND       PRES   REMARKS
BATTLE CREEK   CLEAR     22   2  42 N12       30.14R WCI  10
BENTON HARBOR  CLEAR     22  11  62 VRB6      30.18R WCI  14
BIG RAPIDS     CLEAR     16   4  58 N8        30.17S WCI   5
COLDWATER      CLEAR     22  10  61 NW7       30.12R WCI  13
FREMONT        FAIR      18  -2  41 NE8       30.19R WCI   8
HOLLAND        CLEAR     21   5  50 N6        30.19R WCI  13
GRAND RAPIDS   CLEAR     19   0  43 N10       30.17R WCI   7
IONIA          FAIR      20   5  52 N10       30.15R WCI   8
KALAMAZOO      CLEAR     20   9  62 NW9       30.15R WCI   9
LUDINGTON      CLEAR     18   4  53 CALM      30.22S
MARSHALL       CLEAR     20   2  44 N6        30.12R WCI  13
MOUNT PLEASANT CLEAR     18   3  53 NW5       30.18R WCI  11
MUSKEGON       CLEAR     19   5  54 N9        30.21R WCI   8
SOUTH HAVEN    CLEAR     23  10  57 N8        30.17S WCI  14
$$
MIZ016>042-280400-
NORTHERN LOWER MICHIGAN

CITY           SKY/WX    TMP DP  RH WIND       PRES   REMARKS
ALPENA         CLEAR     15   4  61 W6        30.18R WCI   6
BEAVER ISLAND  CLEAR     12   3  66 CALM      30.23S
BELLAIRE       CLEAR     14   5  68 CALM      30.22S
CADILLAC       CLEAR     12   1  63 CALM      30.15R
CHARLEVOIX     CLEAR     15   7  71 N9        30.25R WCI   3
FRANKFORT      CLEAR     17   6  63 CALM      30.22R
GAYLORD        CLEAR     11   2  67 NW5       30.14R WCI   3
GRAYLING       CLEAR     11   1  66 W5        30.17R WCI   3
HARBOR SPRINGS CLEAR     13   2  61 CALM      30.21R
HOUGHTON LAKE  CLEAR     13   1  59 NW8       30.16R WCI   2
MANISTEE       FAIR      16   3  57 CALM      30.22S
OSCODA         PTCLDY    14   4  63 NW5       30.17R WCI   6
PELLSTON       CLEAR     12   3  67 NW7       30.22R WCI   1
ROGERS CITY    PTCLDY    17  13  82 NW8G16    30.19R WCI   7
TRAVERSE CITY  CLEAR     17   4  56 N5        30.21R WCI  10
$$
MIZ007>008-015-280400-
EASTERN UPPER MICHIGAN

CITY           SKY/WX    TMP DP  RH WIND       PRES   REMARKS
KINROSS        CLEAR      7   5  92 NW8       30.19S WCI  -6
MACKINAC ISLAN CLEAR     12   3  65 NW9       30.20S WCI   0
NEWBERRY       CLEAR      7   4  86 NW3       30.20S
S. S. MARIE    CLEAR      9   4  80 NW8       30.20R WCI  -3
MUNISING         N/A      6   1  80 S6        30.23S WCI  -4
$$
MIZ004>006-011>014-085-280400-
CENTRAL UPPER MICHIGAN

CITY           SKY/WX    TMP DP  RH WIND       PRES   REMARKS
MANISTIQUE     CLEAR      7   2  78 CALM      30.22F
ESCANABA       CLEAR     14   1  57 NE3       30.23S
MENOMINEE      CLEAR     19   7  58 E8        30.22R WCI   9
SAWYER-GWINN   CLEAR      4  -1  79 CALM      30.19R
$$
MIZ001>003-009>011-084-280400-
WESTERN UPPER MICHIGAN

CITY           SKY/WX    TMP DP  RH WIND       PRES   REMARKS
IRON MOUNTAIN  CLEAR     17  -1  45 E3        30.18R
HOUGHTON       CLEAR      6   5  95 CALM      30.18S
COPPER HARBOR    N/A      7   1  76 CALM      30.22S
IRONWOOD       CLEAR     16  10  79 CALM      30.14S
$$

ABBREVIATIONS USED IN REMARKS
   TC - TEMPERATURE IN CELSIUS
  WCI - WIND CHILL INDEX
   HX - HEAT INDEX
  VSB - VISIBILITY




USA.gov is the U.S. government's official web portal to all federal, state and local government web resources and services.